weather.gov     
National Weather Service

Regional Weather Roundup
NWS Homepage
This page is being discontinued on March 12, 2014.
The same data is available at this site. Please update your bookmarks.
Thank you, and we apologize for the inconvenience.
Please send an email to SR-SRH.Webmaster@noaa.gov with any concerns.


Current Version
Previous Version:    01  02  03  04  05  06  07  08  09  10  11  12  13  14  15  16  17  18  19  20  21  22  23  24  25  26  27  28  29  30  
   31  32  33  34  35  36  37  38  39  40  41  42  43  44  45  46  47  48  49  50  51  52  53  54  55  56  57  58  59  60  
[Printable]
948
ASUS44 KLIX 261610
RWRLIX
NEW ORLEANS REGIONAL WEATHER ROUNDUP
NATIONAL WEATHER SERVICE NEW ORLEANS LA
1000 AM CST MON JAN 26 2015

NOTE: "FAIR" INDICATES FEW OR NO CLOUDS BELOW 12,000 FEET WITH NO
      SIGNIFICANT WEATHER AND/OR OBSTRUCTIONS TO VISIBILITY.
      SKY/WX - SKY CONDITION AND SIGNIFICANT WEATHER.
      TMP - AIR TEMPERATURE.     DP    - DEWPOINT TEMPERATURE.
      RH  - RELATIVE HUMIDITY.   PRES  - PRESSURE.
      HI  - HEAT INDEX.          WCI   - WIND CHILL INDEX.

*  THESE STATIONS ARE NOT NWS OR FAA STATIONS AND ARE NOT UNDER
   NWS QUALITY CONTROL.

LAZ038-040-048-061>063-065>067-069-261700-
SOUTHEAST LOUISIANA

CITY           SKY/WX    TMP DP  RH WIND       PRES   REMARKS
N.O. AUDUBON   NOT AVBL
N.O. INTL ARPT MOSUNNY   52  35  52 N14G23    30.16R
N.O. LAKEFRONT SUNNY     53  37  54 NW20      30.16R
N.O. DOWNTOWN*   N/A     52  32  46 NW7G18    30.15S
SLIDELL        SUNNY    N/A N/A N/A NW10G20   30.13R
BATON ROUGE    SUNNY     52  33  48 N12       30.18R
BOOTHVILLE     SUNNY     52  38  58 N17G25    30.14S
BELLE CHASSE   SUNNY     54  34  46 N16G25    30.14R
BOGALUSA*        N/A     53  37  54 N13G18    30.16R
GALLIANO*      SUNNY     55  37  50 MISG      30.16R
NEW ROADS*       N/A     51  34  52 NW13      30.19S
GONZALES*        N/A     52  35  51 N15G22    30.17R
HAMMOND*       SUNNY     52  34  50 N15G21    30.16S
HOUMA*         SUNNY     55  37  50 NW14      30.15S
PORT FOURCHON* SUNNY     54  36  50 N13G20    30.19R

$$

MSZ070-080>082-261700-
SOUTHERN MISSISSIPPI

CITY           SKY/WX    TMP DP  RH WIND       PRES   REMARKS
MCCOMB         SUNNY     50  34  54 NW13      30.16R
GULFPORT       SUNNY     52  36  54 NW18G28   30.11R
BILOXI         SUNNY     52  37  55 N15       30.10R
PASCAGOULA     SUNNY     53  36  52 NW12G22   30.09R
STENNIS ARPT*  SUNNY     52  32  46 NW9G21    30.12R

$$

COASTAL OBSERVATIONS
LAKE AND NEARSHORE STATIONS

STATION/POSITION TIME  TEMP    WIND        PRES    WAVE
                       AIR SEA DIR/SP/G            HT/PER
                 (UTC) (F)     (DEG/KT/KT) (MB)    (FT/S)
PASCAGOULA       1600   52     320/ 14/ 19 1018.4
WAVELAND YACHT   1600   49     330/ 16/ 20 1019.1
GRAND ISLE       1600   53 56  350/ 12/ 18 1021.4
SOUTHWEST PASS   1600   52 46   20/ 13/ 15 1020.9
NEW CANAL        1600   49 51  350/ 13/ 17 1021.4
SHELL BEACH      1600   49 52  330/ 16/ 19 1020.5

OFFSHORE STATIONS

STATION/POSITION TIME  TEMP    WIND        PRES    WAVE
                       AIR SEA DIR/SP/G            HT/PER
                 (UTC) (F)     (DEG/KT/KT) (MB)    (FT/S)
64 S DAUPHIN ISL 1516   53 70  320/ 19/ 27 1019.8    6/ 6

$$





U.S. Dept. of Commerce
NOAA National Weather Service
1325 East West Highway
Silver Spring, MD 20910
E-mail: w-nws.webmaster@noaa.gov
Page last modified: May 16, 2007
NATIONAL WEATHER SERVICE: for Safety, for Work, for Fun - FOR LIFE